Overview Statistics Trail Chart Weather Telemetry Raw packets
 

This is the latest recevied weather packets stored in our database for station/object VE4GLS. If no packets are shown the sender has not sent any weather packets the latest 10 day(s).

<< 87 88 89 90 91 92 93 >>
Time Temp. Humidity Pressure Rain* Wind** Luminosity Snow
1787766679 24.44° C 59% 1018.7 hPa 0 mm - - -
1787766420 24.44° C 60% 1018.6 hPa 0 mm - - -
1787765820 24.44° C 60% 1018.6 hPa 0 mm - - -
1787765779 24.44° C 60% 1018.6 hPa 0 mm - - -
1787765220 23.89° C 60% 1018.6 hPa 0 mm - - -
1787764881 23.89° C 58% 1018.7 hPa 0 mm - - -
1787764621 24.44° C 61% 1018.7 hPa 0 mm - - -
1787764021 24.44° C 64% 1018.6 hPa 0 mm - - -
1787763978 23.89° C 63% 1018.6 hPa 0 mm - - -
1787763420 23.33° C 66% 1018.6 hPa 0 mm - - -
1787763080 23.33° C 68% 1018.7 hPa 0 mm - - -
1787762820 23.33° C 68% 1018.8 hPa 0 mm - - -
1787762221 22.78° C 73% 1018.7 hPa 0 mm - - -
1787762179 22.78° C 72% 1018.8 hPa 0 mm - - -
1787761619 22.22° C 75% 1018.7 hPa 0 mm - - -
1787761279 22.22° C 77% 1018.6 hPa 0 mm - - -
1787761021 22.22° C 75% 1018.7 hPa 0 mm - - -
1787760420 21.67° C 75% 1018.6 hPa 0 mm - - -
1787760380 21.67° C 75% 1018.6 hPa 0 mm - - -
1787759819 21.67° C 77% 1018.6 hPa 0 mm - - -
1787759478 21.67° C 79% 1018.5 hPa 0 mm - - -
1787759220 21.11° C 78% 1018.5 hPa 0 mm - - -
1787758620 21.11° C 78% 1018.4 hPa 0 mm - - -
1787758580 21.11° C 78% 1018.4 hPa 0 mm - - -
1787758020 21.11° C 78% 1018.2 hPa 0 mm - - -

* Rain latest hour (hover to see other rain measurements)
** Current wind speed in m/s (hover to see current wind gust speed)